Location: Hurstbourne Priors
(51.2000°N, 1.3667°W)
Time: 22:30:21
(UTC+00:00)

Transit 4A - Pass Details

Date: 21 April 2021
Orbit: 871 x 974 km, 66.8° (Epoch: 16 May)

Event Time Altitude Azimuth Distance (km) Brightness Sun altitude
Rises 04:40:10 0° 310° (NW) 3,564 10.7 -3.4°
Reaches altitude 10° 04:43:28 10° 327° (NNW) 2,601 10.2 -2.9°
Maximum altitude 04:47:47 20° 14° (NNE) 1,963 10.1 -2.3°
Drops below altitude 10° 04:52:01 10° 60° (ENE) 2,553 12.2 -1.6°
Sets 04:55:13 0° 77° (ENE) 3,478 13.5 -1.2°
